This demonstration page uses our WeatherBlox Daily Observations layout. Learn more.

Left ArrowRight Arrow

Hourly Observations for May 21, 2021

Temp ( °F °C ) Dew Point ( °F °C ) Humidity (%) Winds ( mph kmh ) Pressure ( in mb ) Visibility ( mi km ) Precip ( " mm )
12:53 am 00:53 Clear 75 23.9 52 11.1 45 45 SE 17 28 29.74 1007 10 16 0.00 0.00
1:53 am 01:53 Clear 73 22.8 52 11.1 48 48 SE 17 28 29.73 1007 10 16 0.00 0.00
2:53 am 02:53 Clear 72 22.2 53 11.7 52 52 SE 20 31 29.73 1007 10 16 0.00 0.00
3:53 am 03:53 Clear 71 21.7 54 12.2 55 55 SE 18 30 29.73 1007 10 16 0.00 0.00
4:53 am 04:53 Clear 69 20.6 55 12.8 61 61 SE 18 30 29.73 1007 10 16 0.00 0.00
5:53 am 05:53 Clear 68 20 56 13.3 65 65 SE 14 22 29.75 1007 10 16 0.00 0.00
6:53 am 06:53 Sunny 67 19.4 57 13.9 71 71 SE 17 28 29.76 1008 10 16 0.00 0.00
7:53 am 07:53 Sunny 68 20 58 14.4 70 70 SE 20 31 29.79 1009 10 16 0.00 0.00
8:53 am 08:53 Sunny 71 21.7 58 14.4 63 63 SE 22 35 29.80 1009 10 16 0.00 0.00
9:53 am 09:53 Sunny 76 24.4 57 13.9 52 52 SSE 23 37 29.82 1010 10 16 0.00 0.00
10:53 am 10:53 Sunny 81 27.2 57 13.9 44 44 SE 24 39 29.81 1009 10 16 0.00 0.00
11:53 am 11:53 Sunny 85 29.4 56 13.3 37 37 SE 20 31 29.80 1009 10 16 0.00 0.00
12:53 pm 12:53 Sunny 89 31.7 57 13.9 34 34 SE 20 31 29.80 1009 10 16 0.00 0.00
1:53 pm 13:53 Sunny 92 33.3 56 13.3 30 30 SE 23 37 29.78 1009 10 16 0.00 0.00
2:53 pm 14:53 Sunny 94 34.4 56 13.3 28 28 ESE 26 43 29.75 1008 10 16 0.00 0.00
3:53 pm 15:53 Sunny 93 33.9 55 12.8 28 28 SE 23 37 29.73 1007 10 16 0.00 0.00
4:53 pm 16:53 Sunny 93 33.9 55 12.8 28 28 ESE 25 41 29.72 1007 10 16 0.00 0.00
5:53 pm 17:53 Sunny 91 32.8 55 12.8 30 30 SE 25 41 29.73 1007 10 16 0.00 0.00
6:53 pm 18:53 Sunny 89 31.7 55 12.8 31 31 SE 28 44 29.74 1007 10 16 0.00 0.00
7:53 pm 19:53 Sunny 87 30.6 55 12.8 34 34 SE 29 46 29.75 1008 10 16 0.00 0.00
8:53 pm 20:53 Clear 84 28.9 56 13.3 38 38 SE 28 44 29.78 1009 10 16 0.00 0.00
9:53 pm 21:53 Clear 82 27.8 57 13.9 42 42 SE 25 41 29.81 1010 10 16 0.00 0.00
10:53 pm 22:53 Clear 79 26.1 58 14.4 49 49 SSE 26 43 29.84 1011 10 16 0.00 0.00
11:53 pm 23:53 Clear 77 25 59 15 54 54 SE 25 41 29.86 1011 10 16 0.00 0.00

Powered by AerisWeather